Wind_Speed
16 16 17 16 14 13 13 13 12 13 13 13 12 11 10 10 10 11 11 11 11 11 11 11 10 11 11 11 12 12 12 14 15 15 15 15 16 16 16 15 14 14 15
15 16 17 17 15 14 14 13 12 13 12 13 12 11 11 10 10 10 11 11 10 11 11 11 11 11 11 10 11 12 12 14 15 15 16 16 16 16 16 16 16 16 15
15 15 17 17 16 15 14 13 12 13 14 12 12 11 11 10 10 10 11 11 10 10 10 11 11 11 11 11 11 12 12 13 14 14 14 15 15 15 16 16 16 16 17
15 15 16 15 15 14 13 12 12 13 11 10 10 9 9 10 10 11 10 10 9 9 10 11 11 12 12 11 12 12 11 12 14 14 14 15 15 15 16 16 16 16 17
16 15 15 14 13 13 12 11 11 11 9 8 8 8 9 9 11 10 10 9 9 9 10 11 11 11 12 12 12 12 12 13 14 15 15 16 15 15 15 15 15 16 16
16 15 14 13 12 12 11 11 10 10 10 9 9 9 9 9 10 10 10 9 8 9 10 10 10 10 11 12 13 13 13 13 14 16 16 16 16 15 16 16 16 16 16
15 14 14 13 13 12 11 10 10 11 11 10 9 9 10 10 10 9 9 8 8 8 9 9 10 11 11 12 13 13 13 14 15 15 16 16 16 16 16 17 17 17 16
15 14 14 14 13 12 11 9 10 10 10 9 10 9 9 9 9 9 9 9 9 9 9 9 10 10 11 11 12 13 14 14 14 15 15 15 15 16 17 17 17 17 18
15 15 14 13 12 11 11 10 10 10 10 10 10 9 8 8 8 9 9 9 9 9 9 9 10 9 10 10 11 13 13 14 14 14 15 16 16 16 17 17 18 18 18
14 14 13 12 11 10 11 11 10 10 10 10 9 9 9 7 8 8 9 9 9 8 8 9 10 10 10 10 10 11 12 13 14 14 15 16 16 17 17 17 18 18 19
14 13 13 13 12 11 11 10 10 9 9 9 8 8 8 8 8 8 8 9 9 8 8 9 10 10 10 10 11 10 10 12 13 14 15 16 16 17 17 18 18 18 18
14 13 13 12 11 11 11 10 9 8 9 9 9 8 8 8 8 9 9 9 8 8 9 9 9 9 10 10 11 11 11 12 12 13 14 15 16 17 17 18 18 18 19
15 14 13 13 12 11 10 10 10 9 9 9 9 9 8 8 8 9 9 10 9 9 9 9 9 10 10 11 11 12 12 12 12 13 13 14 14 15 16 16 17 17 18
16 15 14 14 13 12 11 11 11 11 12 11 10 9 9 9 9 9 10 10 10 10 10 10 9 10 10 11 11 11 11 12 12 13 13 14 15 15 16 17 18 18 18
17 17 16 15 13 12 12 12 12 12 12 12 11 10 10 10 11 11 11 11 11 11 11 11 11 11 11 11 11 12 12 12 13 14 14 15 16 17 18 18 19 19 20
18 17 16 16 16 14 13 12 12 13 12 12 11 11 11 11 12 13 13 13 13 13 13 13 13 13 13 13 13 13 14 14 14 15 15 16 17 18 19 20 21 21 21
19 18 16 15 15 15 15 15 14 14 14 13 13 12 12 13 13 13 14 14 14 14 14 15 15 14 14 14 15 15 15 15 15 16 16 16 17 18 19 19 20 21 22
20 19 18 17 16 16 16 16 16 15 15 15 15 14 14 14 14 15 15 16 16 16 16 16 16 16 16 16 16 17 18 18 18 17 17 17 18 18 19 20 20 21 21
20 20 19 18 18 17 17 17 16 16 16 16 15 15 15 15 16 16 16 16 17 17 18 19 18 18 18 18 19 19 19 18 18 18 18 19 19 20 20 21 21 21 21
21 20 20 19 19 18 18 18 17 17 17 16 16 16 16 16 17 17 17 17 17 18 19 19 19 19 19 19 20 21 20 18 18 19 19 19 20 21 21 21 21 21 22
21 21 20 20 19 19 18 17 18 18 18 18 18 18 18 17 17 18 18 18 18 19 19 20 20 20 20 20 21 21 19 19 19 19 19 20 20 21 22 22 22 22 22
22 22 21 21 21 20 19 18 19 19 20 20 20 19 19 18 18 18 19 19 19 20 19 20 20 20 21 21 21 21 20 20 20 20 21 21 21 21 22 22 22 22 23
22 22 22 21 22 21 20 20 20 21 21 20 20 20 20 20 19 19 19 19 19 19 20 20 21 21 21 22 22 21 21 22 22 22 22 22 22 23 23 23 22 23 23
23 22 22 21 21 21 22 22 22 22 22 21 21 21 21 21 21 21 21 21 21 21 22 22 23 22 21 22 22 21 22 22 22 23 23 23 24 24 23 23 23 24 24
22 22 23 23 23 22 22 22 22 22 22 22 22 22 22 22 22 22 22 22 22 23 22 22 22 22 22 22 23 23 23 23 23 24 24 24 24 24 24 24 24 24 24
22 23 23 24 23 23 23 23 23 23 22 22 23 23 23 22 23 23 23 22 22 23 23 22 22 22 23 23 23 23 24 24 24 25 25 25 25 24 24 24 24 24 23
Wind_Direction
289 289 291 294 293 290 289 287 278 281 280 282 278 271 271 273 280 286 287 277 266 256 253 254 253 254 256 256 258 255 252 243 243 245 246 245 247 248 253 254 257 260 261
288 292 291 293 293 290 287 288 279 277 279 278 273 268 266 268 276 284 284 281 268 258 249 250 253 254 255 257 258 256 253 246 243 243 246 246 246 249 252 256 259 261 262
289 291 292 291 291 289 287 285 279 277 275 273 269 267 268 270 279 282 284 282 270 260 251 245 253 252 255 259 259 257 252 247 245 243 245 245 246 252 256 258 259 260 260
286 289 293 295 292 288 285 284 279 280 280 274 264 265 266 269 275 280 281 275 266 261 252 247 251 252 255 256 254 255 252 249 248 245 245 247 251 254 257 257 258 259 260
288 289 292 293 290 285 283 283 279 275 278 274 264 260 264 274 278 280 278 274 268 261 254 250 254 255 255 254 253 253 252 253 251 247 249 251 253 256 258 259 260 262 263
286 289 291 290 289 286 284 280 278 276 276 272 267 269 270 276 277 277 276 274 269 262 257 257 257 257 256 256 256 256 258 257 254 251 252 255 254 258 259 262 263 264 264
282 286 288 287 285 284 283 277 271 272 269 266 266 271 269 272 273 272 274 268 261 261 259 260 260 259 260 259 259 261 263 261 257 255 256 257 256 258 261 264 264 263 265
277 281 284 285 282 277 275 271 267 268 263 263 265 266 268 267 267 264 263 262 258 259 260 263 264 264 263 261 262 264 263 261 259 257 256 255 259 260 262 264 265 267 269
275 277 280 282 280 274 269 266 260 259 260 263 267 268 263 263 262 259 257 261 260 260 262 265 266 268 265 265 267 267 263 259 258 259 257 255 256 260 263 263 263 266 268
273 276 277 274 277 278 276 274 266 260 263 264 268 266 265 261 257 259 256 258 262 263 267 268 266 269 268 266 268 267 263 262 262 261 260 259 258 261 264 266 266 267 269
272 272 273 273 272 277 283 280 267 259 259 260 266 264 259 256 256 259 260 260 261 265 268 270 267 271 273 269 270 273 269 269 268 267 266 265 265 267 268 268 269 271 271
270 270 270 271 273 279 275 271 265 260 258 261 268 266 262 258 257 257 256 258 263 267 269 275 274 273 274 274 271 271 270 272 272 273 274 272 270 270 272 271 270 272 274
270 268 266 269 271 274 266 260 260 259 260 263 270 270 267 263 259 253 249 254 260 267 271 277 278 275 275 275 273 272 271 272 274 275 276 277 276 274 273 274 273 274 275
269 263 262 268 270 267 263 261 259 257 259 263 267 266 262 262 262 260 255 259 262 266 274 282 284 282 280 280 278 277 275 275 276 277 278 279 279 278 275 275 275 275 276
268 264 262 262 262 262 255 255 257 256 257 260 263 262 262 262 261 261 259 260 264 268 274 282 284 282 280 281 280 276 275 275 277 277 276 278 279 279 276 274 274 274 276
265 263 264 258 256 255 249 249 252 254 254 257 261 262 261 261 261 262 261 262 264 266 271 277 281 279 276 275 277 278 278 276 278 280 279 280 281 280 278 277 276 276 276
264 265 266 261 258 256 255 254 250 250 251 253 257 260 260 262 262 262 261 263 265 267 270 273 276 275 274 274 275 276 277 278 280 282 282 283 283 284 282 281 280 279 278
261 261 262 260 259 258 259 255 250 250 254 256 258 261 265 264 263 262 263 264 266 269 270 274 276 274 272 274 276 277 278 278 281 283 285 284 284 286 286 286 284 282 282
261 260 260 259 259 260 259 256 253 254 259 261 260 263 266 266 267 266 265 264 265 268 269 273 276 276 276 277 277 278 278 278 281 283 284 284 285 287 289 288 287 285 284
260 260 258 258 258 259 258 257 257 257 261 262 263 265 268 270 270 269 269 268 267 269 270 272 275 277 277 278 277 277 278 280 282 284 283 283 284 287 289 288 287 286 287
257 258 257 256 256 257 258 258 257 258 259 260 263 265 268 270 271 271 271 269 270 271 272 272 274 276 276 276 275 277 278 281 283 283 283 284 287 289 290 288 287 286 287
254 255 256 256 257 257 257 258 258 258 258 260 263 265 267 271 271 272 271 269 272 273 271 272 275 276 276 276 276 276 278 280 281 283 284 284 285 287 289 288 287 286 285
256 256 256 256 256 256 256 259 260 259 259 261 264 266 268 271 272 272 271 270 271 272 272 274 275 276 277 276 276 276 279 281 281 282 282 283 285 286 286 286 286 285 285
257 255 254 256 256 256 257 259 259 258 260 262 265 267 268 270 271 272 273 273 272 273 273 274 275 275 278 278 277 278 280 282 282 283 284 284 285 286 286 286 287 287 287
255 254 253 254 256 257 257 257 258 258 260 263 266 267 269 271 271 272 274 274 275 275 274 275 274 274 276 279 278 277 279 281 281 282 284 284 284 284 286 287 288 288 289
252 252 253 253 256 258 258 258 259 260 262 263 265 267 269 270 269 271 272 273 274 276 276 276 275 275 277 277 278 278 278 279 281 282 283 283 283 284 285 287 288 289 288
Height
5841 5840 5839 5838 5838 5837 5836 5835 5834 5833 5832 5832 5831 5831 5831 5830 5830 5830 5829 5828 5828 5829 5829 5830 5831 5831 5832 5832 5833 5834 5835 5836 5837 5839 5840 5841 5843 5844 5845 5846 5847 5847 5848
5838 5837 5836 5835 5834 5833 5832 5831 5830 5829 5829 5828 5827 5827 5828 5828 5827 5827 5827 5826 5826 5826 5827 5828 5828 5829 5829 5830 5830 5831 5832 5833 5834 5835 5836 5838 5840 5840 5841 5842 5843 5843 5844
5834 5833 5833 5831 5830 5829 5828 5827 5827 5826 5826 5825 5824 5824 5824 5824 5825 5825 5825 5824 5823 5824 5824 5825 5826 5826 5827 5827 5827 5828 5829 5830 5831 5832 5833 5834 5836 5836 5837 5838 5839 5839 5839
5831 5830 5828 5827 5826 5826 5825 5824 5824 5823 5822 5821 5821 5822 5822 5822 5822 5822 5822 5822 5821 5821 5822 5822 5823 5823 5824 5824 5825 5825 5826 5827 5828 5829 5830 5831 5832 5833 5834 5834 5835 5835 5835
5827 5826 5825 5824 5823 5822 5821 5821 5820 5820 5820 5820 5820 5820 5820 5820 5820 5820 5819 5819 5819 5819 5819 5820 5820 5821 5821 5821 5822 5823 5823 5824 5825 5825 5826 5828 5828 5829 5830 5831 5831 5831 5831
5823 5822 5821 5820 5819 5818 5818 5817 5817 5817 5817 5817 5818 5817 5817 5817 5818 5817 5817 5817 5816 5816 5817 5817 5818 5818 5818 5819 5819 5820 5820 5821 5822 5822 5823 5824 5825 5826 5826 5827 5827 5827 5827
5819 5818 5817 5816 5816 5815 5815 5814 5815 5814 5814 5814 5815 5815 5815 5815 5815 5815 5815 5815 5814 5814 5815 5815 5815 5816 5816 5816 5817 5817 5818 5818 5818 5819 5819 5820 5821 5822 5822 5823 5823 5823 5823
5815 5815 5814 5813 5813 5812 5812 5812 5812 5812 5812 5812 5812 5812 5812 5812 5813 5813 5813 5813 5812 5812 5813 5813 5813 5813 5813 5814 5814 5814 5814 5815 5815 5815 5816 5816 5817 5818 5818 5819 5819 5819 5819
5812 5811 5811 5810 5809 5809 5809 5809 5809 5809 5809 5809 5809 5810 5809 5809 5810 5811 5811 5810 5810 5810 5811 5811 5811 5811 5811 5811 5811 5811 5811 5811 5811 5812 5812 5812 5813 5813 5814 5814 5815 5815 5815
5807 5807 5807 5806 5806 5806 5806 5806 5806 5806 5806 5807 5807 5807 5808 5807 5808 5808 5809 5809 5809 5808 5808 5809 5809 5809 5809 5809 5809 5808 5808 5808 5808 5808 5809 5809 5809 5810 5810 5810 5810 5810 5810
5803 5803 5803 5803 5803 5803 5803 5803 5803 5804 5804 5805 5805 5805 5805 5805 5806 5806 5807 5807 5806 5806 5806 5806 5806 5806 5806 5806 5806 5806 5806 5806 5805 5805 5806 5806 5806 5806 5806 5806 5805 5805 5805
5799 5799 5800 5800 5800 5800 5800 5800 5801 5801 5802 5802 5803 5803 5803 5803 5803 5804 5804 5805 5805 5804 5804 5804 5804 5804 5804 5803 5803 5803 5803 5803 5803 5802 5802 5802 5802 5802 5802 5801 5801 5801 5800
5796 5796 5797 5797 5797 5797 5797 5798 5799 5799 5800 5800 5800 5800 5800 5800 5801 5801 5802 5802 5803 5802 5802 5802 5801 5801 5801 5800 5800 5800 5800 5800 5799 5799 5799 5798 5797 5797 5797 5797 5796 5796 5795
5793 5793 5793 5793 5794 5794 5795 5796 5796 5796 5797 5798 5797 5798 5798 5798 5798 5799 5799 5800 5800 5800 5799 5799 5799 5798 5798 5798 5797 5797 5797 5796 5796 5796 5795 5794 5794 5793 5793 5792 5792 5791 5791
5789 5789 5789 5789 5790 5791 5792 5792 5793 5793 5794 5794 5794 5795 5795 5796 5796 5796 5797 5797 5797 5797 5797 5797 5796 5796 5795 5795 5794 5794 5793 5793 5792 5792 5791 5790 5790 5789 5788 5788 5787 5786 5786
5785 5785 5785 5786 5786 5787 5788 5789 5789 5790 5791 5791 5792 5792 5792 5793 5793 5793 5793 5793 5794 5794 5793 5793 5793 5793 5792 5792 5791 5791 5790 5789 5789 5788 5787 5786 5785 5784 5783 5783 5782 5781 5780
5780 5781 5781 5781 5782 5783 5784 5785 5786 5786 5787 5788 5788 5789 5789 5789 5790 5790 5790 5790 5790 5790 5790 5790 5789 5789 5788 5788 5787 5787 5786 5785 5784 5784 5783 5781 5780 5779 5778 5777 5776 5775 5774
5775 5776 5777 5777 5778 5779 5779 5780 5781 5782 5783 5784 5785 5785 5785 5786 5786 5786 5786 5786 5786 5786 5786 5785 5785 5784 5784 5783 5783 5782 5781 5781 5780 5779 5778 5777 5776 5774 5773 5772 5771 5769 5768
5770 5770 5771 5772 5773 5774 5775 5776 5776 5778 5778 5779 5780 5781 5781 5781 5781 5781 5781 5781 5781 5781 5781 5781 5780 5780 5779 5779 5778 5777 5776 5776 5775 5774 5773 5772 5770 5769 5768 5767 5765 5764 5762
5764 5765 5766 5767 5768 5769 5770 5771 5772 5773 5774 5775 5775 5776 5776 5776 5776 5776 5776 5775 5776 5776 5775 5775 5775 5774 5774 5773 5773 5772 5771 5770 5769 5768 5767 5766 5765 5764 5762 5761 5759 5758 5756
5758 5759 5761 5762 5763 5764 5765 5765 5766 5768 5769 5770 5770 5771 5771 5771 5771 5771 5771 5770 5770 5770 5770 5770 5769 5769 5768 5767 5767 5766 5766 5765 5764 5763 5762 5761 5759 5758 5756 5755 5753 5752 5750
5752 5753 5755 5756 5757 5758 5759 5760 5761 5762 5763 5764 5765 5765 5766 5766 5766 5765 5765 5765 5765 5765 5764 5764 5763 5763 5762 5762 5761 5760 5760 5759 5758 5757 5756 5754 5753 5752 5750 5748 5747 5745 5744
5745 5747 5748 5750 5751 5752 5753 5754 5755 5756 5757 5758 5759 5759 5760 5760 5759 5759 5759 5759 5759 5759 5759 5758 5758 5757 5756 5755 5754 5754 5753 5752 5751 5750 5749 5748 5747 5745 5743 5742 5740 5738 5737
5739 5740 5742 5743 5745 5746 5747 5748 5749 5749 5750 5751 5752 5752 5753 5753 5753 5753 5753 5753 5753 5752 5752 5751 5751 5750 5749 5749 5748 5747 5746 5745 5744 5743 5742 5741 5740 5738 5737 5735 5733 5731 5729
5732 5734 5735 5737 5738 5739 5740 5741 5742 5743 5743 5744 5745 5746 5746 5746 5746 5746 5746 5746 5746 5745 5744 5744 5743 5743 5743 5742 5741 5740 5739 5738 5738 5736 5735 5734 5732 5731 5730 5728 5726 5724 5722
5726 5727 5728 5730 5730 5731 5732 5733 5735 5736 5736 5737 5738 5739 5739 5739 5739 5739 5739 5739 5739 5738 5738 5737 5737 5736 5736 5735 5734 5733 5732 5731 5731 5729 5728 5727 5725 5724 5722 5721 5719 5717 5715